User: anonymous   Login
Location: Unspecified
(0.0000°N, 0.0000°E)
Time: 13:46:22
(UTC+00:00)
Language:

OPAL - Orbit

View from above orbital plane
View from above orbital plane
View from above satellite
View from above satellite

Ground track
Ground track

The orbit data is extracted from the following two-line orbital elements,

1 26063U 00004C   17114.94221585 +.00000019 +00000-0 +26222-4 0  9999
2 26063 100.2280 108.6243 0037211 098.4686 262.0714 14.36660318903531
Epoch (UTC): 24 April 2017 22:36:47
Eccentricity: 0.0037211
inclination: 100.2280°
perigee height: 743 km
apogee height: 796 km
right ascension of ascending node: 108.6243°
argument of perigee: 98.4686°
revolutions per day: 14.36660318
mean anomaly at epoch: 262.0714°
orbit number at epoch: 90353

The dashed part of the orbit path shows where the satellite is in the earth's shadow,  

DLR